Theta_e
354 354 355 355 355 354 355 355 355 356 356 356 354 353 353 352 352 353 352 351 351 350 348 348 347 347 347 345 345 344 342 340 338 338 336 335 335 335 335 335 334 333 333 333 334 333 333 332 333 333 333 332 331 331 331 334 332 332 333 329 329 328 328 326 323 323 325 326 329 329 331 331 329 328 328 329 330 332 340 337 336 334 334 333 334
354 354 355 355 355 355 355 356 356 356 355 355 354 354 354 353 352 353 352 352 351 351 348 348 348 347 346 345 344 343 342 340 338 338 337 335 335 336 335 334 333 333 333 332 332 333 333 332 332 332 331 331 330 330 330 332 331 330 330 331 329 331 331 327 325 322 323 323 325 328 330 331 329 329 328 329 329 332 333 333 335 335 334 333 333
355 355 355 354 355 356 356 356 356 356 355 355 355 354 354 354 354 353 353 352 352 351 350 347 347 347 346 345 344 343 342 340 339 337 337 336 335 336 336 334 333 332 332 333 332 332 332 332 331 331 332 330 330 330 329 330 330 329 330 332 330 330 331 329 325 323 322 323 325 325 327 329 329 330 330 331 332 332 331 332 333 334 335 335 334
355 355 355 355 355 355 355 356 356 356 355 355 355 355 354 354 354 353 353 353 352 351 351 349 347 347 346 345 344 343 342 341 339 338 337 337 335 336 335 334 334 333 332 333 333 333 332 331 330 330 331 331 330 330 329 330 330 330 330 332 331 330 330 330 328 326 324 324 323 327 328 328 329 331 332 333 332 332 332 332 331 331 332 333 333
355 355 355 354 355 355 355 356 355 356 355 355 355 355 355 354 354 354 353 352 352 352 351 350 347 346 346 345 344 343 342 341 339 338 338 338 337 336 336 335 334 334 333 333 336 333 333 332 331 331 330 330 330 330 329 328 329 329 329 331 331 330 331 331 330 328 324 322 324 328 330 330 331 332 332 330 330 330 330 330 331 331 331 331 332
355 355 355 354 354 354 355 355 355 355 356 355 355 355 356 354 354 354 353 352 352 352 351 350 349 346 346 345 344 343 343 342 340 339 338 338 337 336 336 335 335 334 334 333 333 333 333 332 331 331 330 330 329 330 330 330 330 331 331 331 331 330 329 328 329 327 326 325 326 326 325 329 328 330 331 331 329 329 328 328 327 327 328 328 329
355 355 355 355 354 354 355 355 356 356 356 356 356 355 355 355 354 353 354 353 352 351 351 350 349 348 346 346 345 344 343 342 341 339 338 337 337 336 336 335 335 335 334 334 334 333 332 332 330 330 330 331 331 331 332 331 332 331 332 331 331 330 329 328 329 328 327 327 326 325 324 326 327 326 329 330 330 329 327 325 324 326 326 326 327
354 354 354 354 354 354 355 356 356 356 356 356 356 355 355 355 354 354 354 353 352 352 351 350 350 349 348 347 346 344 343 341 340 340 339 338 337 336 336 336 335 335 335 334 334 333 333 332 332 331 331 332 332 333 333 332 333 332 333 332 331 330 329 328 328 327 325 325 324 325 324 324 325 328 330 326 323 323 326 325 323 323 325 325 326
354 354 354 354 354 355 356 356 356 356 356 356 355 355 354 354 354 354 353 353 353 353 352 351 350 349 348 347 346 345 343 342 341 340 339 338 337 336 336 336 335 334 334 335 334 334 333 333 333 333 335 340 340 339 338 337 333 331 331 332 331 330 328 326 327 324 325 324 324 325 324 325 325 325 324 323 323 323 322 324 322 323 323 324 325
353 353 353 354 354 355 355 356 356 356 356 355 355 355 354 354 353 353 352 352 352 352 351 351 350 349 348 347 346 345 344 343 337 328 332 339 338 337 337 336 335 334 334 333 333 333 334 334 336 341 341 345 345 344 341 342 340 336 332 332 333 330 328 326 324 324 324 322 322 321 320 320 322 323 323 324 324 323 322 322 321 321 319 321 322
353 353 353 354 355 355 355 355 355 355 355 355 355 355 354 353 352 352 352 352 351 351 350 349 349 349 349 348 346 346 345 343 329 326 329 331 337 338 337 336 335 334 334 333 333 333 334 335 336 342 341 344 342 343 341 339 338 337 335 335 335 331 327 325 324 323 323 322 322 322 321 322 323 324 324 324 324 324 323 322 322 321 319 316 316
351 352 353 354 355 354 354 354 354 354 355 354 355 355 354 353 352 351 350 350 351 351 350 348 348 349 349 349 348 347 346 333 326 326 327 328 332 339 338 337 335 333 333 333 334 334 334 335 335 337 335 336 336 339 338 336 333 334 333 332 332 334 333 329 327 324 323 323 323 323 323 323 324 323 323 323 323 323 323 323 322 321 319 316 315
350 351 353 354 354 355 354 354 354 354 354 355 355 354 353 352 351 350 349 350 351 350 350 349 348 349 349 348 348 348 347 332 325 324 326 326 329 334 339 337 334 333 333 334 333 333 333 333 332 334 335 342 339 333 333 334 332 331 332 333 333 331 329 328 329 330 328 326 325 325 325 325 324 325 326 326 325 322 321 319 319 318 318 316 316
350 350 352 353 354 355 354 354 353 353 354 354 354 354 353 352 351 351 350 350 350 350 350 349 350 350 350 349 348 348 347 329 323 322 324 325 327 332 340 338 336 335 335 335 334 334 333 332 332 332 334 338 335 333 333 332 332 331 331 330 330 333 332 328 326 326 329 329 327 326 328 328 326 327 329 328 325 323 319 319 318 316 315 316 317
349 350 351 352 353 354 354 353 353 353 353 354 354 353 353 352 351 351 350 349 350 350 350 349 350 350 350 350 349 348 348 323 321 321 321 322 325 330 339 338 337 336 336 336 335 334 334 333 333 333 334 336 334 334 333 332 331 330 328 329 330 330 330 330 331 329 329 329 328 328 329 330 329 329 328 327 326 325 324 322 319 316 315 313 313
348 350 350 351 352 353 353 353 352 352 352 353 353 353 353 352 351 351 350 350 351 352 351 351 350 350 350 350 348 346 343 319 320 320 320 321 324 333 337 337 337 336 336 336 335 334 333 333 333 333 334 334 334 333 335 332 330 328 327 327 327 327 328 332 330 332 335 332 331 330 330 330 328 329 329 328 325 322 322 318 315 314 312 309 310
346 348 350 351 352 353 354 353 352 352 352 352 352 352 353 352 352 352 350 350 351 351 351 351 351 350 349 347 346 343 334 321 319 318 319 319 322 335 337 337 337 336 335 335 334 334 334 333 333 333 332 331 331 324 329 338 327 325 324 324 325 325 328 330 328 325 324 323 322 323 322 320 318 316 314 316 320 317 315 312 312 311 309 307 310
344 346 348 350 351 352 353 353 353 352 352 351 351 352 353 353 353 353 351 350 350 351 351 349 348 348 347 345 344 339 337 323 316 315 316 316 325 335 336 336 335 335 334 334 334 333 335 339 336 332 331 331 326 322 325 334 327 325 323 325 324 324 326 328 331 327 324 322 319 319 318 318 317 316 315 314 313 315 314 312 313 311 310 310 308
343 344 346 348 349 351 353 354 354 353 352 352 353 352 353 353 353 353 353 352 350 349 348 347 345 345 345 343 333 338 338 326 313 315 315 315 327 337 336 335 333 333 332 331 333 334 335 339 338 335 332 331 322 321 322 330 327 325 324 321 323 323 325 320 320 320 319 319 317 320 321 321 321 320 322 321 320 321 317 316 314 312 309 311 311
344 344 345 346 348 350 352 353 354 354 354 354 354 354 355 354 353 352 351 350 348 348 346 345 344 342 341 339 338 339 336 329 320 313 313 314 322 336 335 333 331 331 332 332 331 333 334 335 335 326 324 322 317 314 315 320 326 325 322 324 323 324 319 315 321 320 315 316 315 316 317 317 317 316 316 317 321 323 318 317 315 314 312 310 312
345 344 344 344 346 348 351 353 353 355 356 356 356 355 355 354 352 350 348 347 346 345 344 343 341 338 337 335 334 332 332 327 320 310 310 313 319 325 334 334 333 332 331 331 331 331 332 332 333 324 318 316 313 310 309 313 323 325 324 324 324 321 315 314 317 324 314 316 316 316 316 315 313 314 315 315 319 316 316 315 317 315 314 312 310
344 343 343 343 344 348 350 353 355 356 357 357 355 354 354 354 351 348 346 344 343 341 339 337 335 333 332 332 332 330 326 323 320 311 312 313 316 321 331 333 333 332 330 330 329 330 330 331 331 325 316 314 312 309 307 310 317 325 323 317 315 313 316 318 314 314 313 314 312 313 313 312 311 314 315 316 317 321 314 312 311 311 313 311 308
343 342 342 343 345 348 352 354 355 358 357 356 355 353 352 349 346 344 343 341 339 337 335 334 332 331 330 329 329 328 326 324 317 319 312 312 313 317 321 326 323 332 330 328 328 328 329 329 330 322 314 310 307 307 307 309 316 319 314 309 309 310 318 315 314 313 311 311 312 312 311 311 313 311 312 312 313 312 313 310 310 310 311 314 313
344 343 344 346 348 352 355 356 357 357 356 355 354 351 348 345 343 342 341 339 336 333 332 332 332 331 329 327 326 325 324 323 318 317 317 313 312 313 314 317 320 328 329 327 326 327 327 327 325 315 308 304 304 306 308 311 318 309 308 307 309 312 315 313 311 311 314 311 309 309 309 309 310 310 312 314 314 310 310 309 309 308 309 310 311
349 348 349 351 353 355 356 357 356 355 354 353 350 347 344 342 339 338 338 335 334 331 330 331 331 330 328 326 324 323 323 323 322 320 316 313 312 311 313 315 317 318 326 325 329 326 321 315 310 307 306 303 304 307 307 308 308 309 307 308 314 313 312 309 309 309 308 308 309 311 311 312 312 314 312 309 312 311 310 310 310 310 310 310 311
353 352 353 354 355 356 355 354 353 352 351 350 347 345 342 339 336 335 333 332 331 330 329 329 328 327 326 325 324 323 323 323 322 321 320 317 316 313 315 317 322 324 325 322 318 316 311 308 307 307 307 308 312 315 317 317 310 311 309 309 311 311 310 308 309 310 309 308 310 310 310 311 311 311 310 311 307 305 306 308 307 308 308 308 306
351 353 353 354 354 354 352 350 346 342 340 339 339 338 336 335 334 332 331 330 330 329 328 327 327 326 326 325 325 324 323 322 322 321 320 319 319 317 317 320 319 318 318 315 314 314 312 314 314 312 312 312 316 316 316 317 313 309 310 311 310 310 310 309 309 309 310 309 310 309 309 311 311 311 308 307 306 306 306 309 307 306 309 305 304
346 346 347 347 345 344 341 341 338 337 337 337 336 335 334 333 333 332 331 331 330 329 328 328 327 327 326 326 326 325 323 322 321 321 319 319 318 316 318 321 320 320 315 314 316 318 317 314 311 315 314 313 311 312 311 313 314 311 309 309 310 312 314 316 317 311 309 309 310 310 311 311 307 305 307 306 305 306 307 307 307 305 307 305 301
337 338 338 338 337 337 337 336 336 334 332 327 324 329 334 335 331 326 326 332 333 331 330 329 329 329 328 327 327 326 325 323 323 316 321 315 318 317 318 320 319 319 318 313 318 317 315 314 314 313 312 313 312 311 309 310 313 313 313 311 310 310 311 310 312 311 311 310 311 311 312 309 306 306 306 304 305 305 304 304 305 303 304 301 301
337 336 336 336 336 335 334 333 330 326 323 320 317 312 305 300 312 328 325 316 318 321 319 330 331 330 329 329 330 328 327 327 315 309 307 305 305 308 310 310 310 316 312 312 318 314 314 313 314 313 312 311 310 310 311 310 311 311 312 315 314 312 312 311 311 312 311 311 311 308 307 306 303 303 303 304 304 304 303 307 303 303 301 300 300
336 336 336 334 333 332 330 329 328 327 327 324 321 318 315 309 296 296 302 305 307 310 312 312 316 321 329 329 322 319 319 311 306 305 303 303 303 303 303 303 304 303 305 317 317 315 313 313 313 312 313 312 311 312 312 311 312 311 312 311 312 313 313 312 312 312 310 310 306 305 304 303 302 302 301 303 304 302 302 303 302 303 300 301 299
332 333 333 332 331 329 330 328 327 326 325 324 323 322 320 315 311 299 295 298 298 298 303 307 308 311 315 319 318 318 309 305 303 302 302 302 301 301 301 302 301 302 304 310 317 315 314 314 313 313 313 313 314 315 314 313 313 313 312 312 312 313 314 313 309 308 306 305 304 305 303 302 301 301 302 302 304 301 300 300 300 300 302 300 302
334 333 332 332 331 330 328 327 327 326 325 324 323 323 321 320 316 312 307 297 295 295 295 296 303 306 307 307 309 309 306 304 302 301 300 300 300 300 300 300 300 300 304 315 317 316 315 315 315 314 314 314 314 314 314 315 314 315 313 313 314 313 313 310 306 306 307 306 305 302 302 302 302 303 303 302 300 298 300 301 300 300 300 298 300
333 333 332 331 330 329 330 328 327 327 326 325 324 323 322 321 318 317 316 315 314 306 299 295 294 300 303 304 306 304 303 301 301 301 300 300 299 299 299 302 298 299 308 318 318 316 316 315 316 316 315 316 316 314 314 312 312 312 310 310 309 309 309 308 307 307 305 304 302 303 303 300 301 297 296 297 299 300 299 300 298 297 297 297 297
335 338 338 335 331 330 330 329 328 327 326 325 324 323 320 320 320 320 320 320 319 316 312 308 299 294 300 300 298 299 300 300 300 300 299 299 298 298 302 311 312 311 312 317 318 317 317 316 316 315 314 314 312 312 310 310 309 310 310 309 308 307 306 305 304 304 303 301 301 300 300 299 296 298 298 298 298 297 298 298 298 298 297 297 298
338 336 335 335 332 331 330 329 328 327 326 325 324 323 322 321 321 321 319 320 317 312 309 304 303 302 296 292 293 295 297 298 298 298 298 298 299 305 317 315 315 314 315 316 317 317 316 315 314 312 311 310 312 309 309 310 309 308 307 307 307 305 304 303 304 302 303 300 299 300 299 296 297 298 296 298 299 298 297 298 298 299 300 298 300
336 335 333 333 332 331 330 329 328 328 326 325 324 323 323 323 322 321 320 318 316 313 308 306 307 307 306 304 298 294 294 296 296 296 296 298 301 315 319 318 317 316 316 315 316 316 314 313 311 311 311 311 309 309 308 307 307 308 308 306 305 303 302 301 301 305 300 299 298 297 296 295 296 297 298 298 298 297 298 299 298 299 300 302 303
335 334 333 332 332 331 330 329 328 327 326 326 325 324 324 324 323 322 320 318 315 312 309 310 314 313 311 306 308 305 300 298 298 298 298 299 306 312 314 316 317 316 315 315 315 315 315 311 311 312 310 309 309 307 307 306 306 306 306 305 305 303 309 306 308 301 300 298 298 297 299 299 297 298 300 297 295 296 297 299 297 296 297 300 299
333 327 327 327 328 331 330 329 328 328 328 327 326 325 325 324 324 323 320 318 316 314 314 314 314 314 311 306 305 306 308 309 310 309 308 309 310 310 313 314 314 313 314 314 315 313 312 311 312 311 310 308 309 307 307 306 306 306 306 305 305 304 303 300 300 299 300 298 298 298 297 297 297 296 297 295 296 296 296 296 297 297 296 296 296
331 331 328 327 329 329 330 330 329 329 328 327 326 326 326 326 325 323 321 318 316 316 315 314 314 313 309 307 306 307 312 312 312 311 310 310 310 310 311 314 313 313 313 312 312 312 311 311 312 311 309 309 308 306 306 306 305 305 304 303 302 301 300 299 298 298 297 297 298 297 297 296 297 297 295 297 297 297 297 298 298 298 297 297 298
332 332 334 327 327 329 332 330 329 328 329 329 328 327 326 326 326 325 321 320 318 316 316 316 315 312 309 306 304 306 314 313 312 311 311 311 311 310 310 311 312 312 314 313 313 312 311 311 311 310 309 308 307 308 307 306 306 305 303 303 302 301 299 298 297 297 297 299 297 297 297 297 298 294 296 297 302 299 298 298 298 297 298 298 299
331 329 329 328 328 330 330 329 329 332 330 329 328 327 327 328 326 324 322 321 319 318 316 316 314 312 306 301 299 301 311 312 312 312 311 311 311 311 311 310 310 310 311 313 314 314 312 313 312 310 309 308 308 308 307 306 304 303 303 301 301 301 300 298 298 298 299 298 297 296 296 298 300 300 299 303 297 296 297 297 297 297 297 298 298
330 330 331 331 330 330 329 330 330 328 328 328 328 331 330 328 325 325 324 322 320 319 318 316 314 311 307 302 302 302 311 312 316 312 312 312 311 312 311 310 310 311 311 312 313 314 313 312 312 313 311 310 309 308 306 305 304 302 300 301 300 299 297 298 299 299 298 298 298 300 298 298 299 296 298 300 296 296 296 297 298 298 297 297 298
327 328 329 331 331 330 330 329 329 328 327 328 328 328 329 327 326 325 323 322 320 320 318 317 314 311 308 303 302 303 311 312 313 312 312 312 311 311 311 310 309 310 311 312 312 312 311 311 311 310 310 309 308 306 304 303 302 300 299 298 299 299 296 298 298 297 297 296 298 298 297 299 299 296 299 300 296 297 298 298 299 298 298 298 298
327 327 327 327 327 327 327 326 326 326 327 327 326 328 329 327 325 324 323 321 322 320 319 317 314 311 309 307 307 308 310 312 314 313 312 312 312 311 311 310 310 311 311 311 311 311 310 310 310 309 307 305 304 303 302 300 299 298 297 297 299 298 296 297 297 297 298 298 298 298 297 297 293 294 296 296 299 298 298 298 297 301 299 298 296
325 325 325 324 325 324 324 324 325 324 323 323 324 325 326 325 325 324 323 322 322 321 319 316 314 312 311 309 310 311 311 311 312 312 313 312 312 311 311 311 312 312 312 312 312 311 311 311 310 308 306 304 302 301 300 299 297 297 296 297 297 298 297 297 298 299 298 297 296 296 296 296 294 295 301 298 297 298 297 298 298 299 297 297 296
325 324 324 324 324 323 322 323 322 322 321 321 318 318 320 321 322 323 326 325 322 321 317 317 315 312 311 311 311 311 312 312 311 311 312 314 313 313 313 313 313 312 311 312 312 311 311 311 309 307 306 304 303 301 299 297 297 296 297 296 297 297 296 296 298 297 296 296 296 293 294 294 295 296 297 297 297 297 298 298 298 299 298 297 296
325 325 323 324 323 323 323 323 323 323 320 320 320 320 320 320 320 321 322 323 322 320 317 316 315 313 312 312 312 312 312 312 312 313 312 314 314 315 315 315 314 314 313 312 311 311 311 309 309 308 307 305 303 301 299 297 296 296 295 296 295 294 296 296 294 294 293 293 292 291 292 291 292 293 295 296 296 297 297 297 299 298 298 298 299
323 322 321 321 322 322 321 321 321 320 320 319 320 320 319 320 319 320 320 321 321 319 318 317 315 314 313 313 313 312 312 313 312 312 312 313 313 315 316 316 315 315 314 313 311 310 308 308 308 307 306 304 303 302 300 298 296 295 294 293 295 298 294 293 291 289 291 293 292 291 290 290 292 295 297 296 296 296 296 297 297 299 298 298 298
321 322 321 321 320 320 321 320 319 319 318 319 318 317 317 318 316 317 318 318 318 318 317 316 315 315 314 314 313 313 313 313 313 312 312 313 313 314 314 314 314 314 313 312 311 309 308 308 308 307 306 305 303 302 300 298 295 295 293 293 295 293 291 291 292 294 293 290 290 290 291 292 292 292 293 294 294 295 295 298 299 300 299 297 297
322 320 320 320 320 319 319 318 319 320 320 318 318 315 314 314 314 313 314 314 313 314 315 315 315 315 314 314 315 314 314 313 313 311 312 312 313 314 314 314 313 312 311 311 309 308 308 308 307 307 306 305 304 303 301 298 296 294 293 292 291 290 290 290 291 290 292 292 289 291 291 292 293 292 294 294 294 294 298 301 300 298 297 298 298
Wind_Speed
19 17 16 17 17 17 17 15 15 13 13 13 13 13 12 12 12 12 10 12 11 12 12 13 13 12 12 11 12 11 11 11 9 9 9 8 8 8 7 8 9 8 7 8 7 7 7 7 6 5 4 5 6 5 5 5 4 4 4 4 4 3 4 4 4 5 4 2 2 3 3 1 2 2 3 3 4 4 4 4 4 3 5 5 6
18 17 16 17 19 18 18 15 14 13 14 13 14 13 13 12 12 11 13 13 12 13 13 12 12 13 13 12 12 12 12 12 11 9 10 10 9 8 8 9 9 9 8 9 9 7 6 6 6 5 3 4 4 4 5 4 5 5 4 6 6 5 4 5 5 4 6 2 2 2 3 1 3 2 3 4 5 4 4 4 3 4 5 5 5
18 17 17 18 19 18 17 15 14 15 16 14 15 15 13 12 12 13 13 12 12 13 13 12 12 13 13 13 12 12 12 12 11 11 11 11 11 10 9 10 10 10 10 11 10 7 6 6 7 5 3 3 4 4 3 4 5 6 5 5 5 6 5 5 4 4 5 5 3 3 3 3 5 5 4 5 4 3 4 4 5 4 4 5 5
17 17 17 18 19 18 17 16 16 16 16 15 16 16 14 12 12 13 13 12 13 12 12 13 12 13 13 13 13 13 12 12 11 12 13 13 12 12 11 11 10 11 11 10 9 7 8 7 6 5 4 5 5 4 3 4 5 5 5 5 5 6 5 5 5 5 5 5 3 5 4 5 5 4 4 3 4 4 4 5 3 4 7 6 5
17 18 18 19 18 18 18 16 17 17 17 15 17 16 15 13 12 14 13 13 13 12 12 12 13 13 14 15 14 13 13 13 13 13 12 12 12 12 11 10 11 11 12 9 6 7 8 8 5 5 5 6 5 4 3 4 4 4 5 4 5 5 4 5 6 5 5 6 4 4 4 4 3 3 3 4 4 4 4 4 6 5 5 5 5
17 18 17 18 18 19 18 17 18 19 18 17 18 17 15 14 14 13 14 14 13 13 13 13 13 14 14 13 14 14 13 13 14 13 13 11 10 10 10 10 11 11 9 6 7 7 7 6 6 6 6 7 6 4 4 5 4 4 4 4 4 3 4 5 5 5 5 6 5 5 3 4 3 3 3 4 5 5 4 4 4 4 4 6 6
17 18 18 19 17 18 18 18 18 18 18 18 16 15 16 16 15 15 14 14 14 14 14 14 13 13 14 13 14 14 13 13 12 12 11 10 10 11 11 11 11 9 7 8 8 8 7 7 6 6 7 6 6 6 6 5 5 5 6 5 4 4 5 5 5 5 6 6 5 4 4 4 4 5 4 3 4 5 5 4 4 4 3 4 6
18 18 18 18 18 19 18 18 18 18 17 16 16 16 15 15 15 14 13 14 15 15 15 15 13 12 12 13 12 11 11 11 11 11 10 11 11 12 12 12 11 8 8 9 8 8 7 7 7 6 7 7 7 6 6 7 5 5 4 3 3 4 5 5 5 5 5 5 6 5 4 4 3 3 2 1 2 3 3 5 6 4 4 2 4
18 18 18 19 19 18 17 16 16 16 17 16 16 16 16 15 15 13 13 14 13 14 14 13 12 12 11 11 11 10 11 11 10 11 11 12 12 13 13 13 11 10 9 8 7 7 7 7 7 8 8 9 10 9 8 7 6 5 3 3 3 5 4 3 4 5 4 4 6 4 4 5 6 4 4 4 5 7 4 4 4 4 3 3 5
18 19 20 20 18 18 17 16 16 16 16 17 17 17 16 15 14 14 14 15 14 13 12 12 12 12 12 11 10 10 10 9 13 19 17 14 12 10 11 11 10 10 9 7 6 7 8 8 8 12 13 13 12 11 10 9 8 6 5 5 5 5 5 4 5 5 5 6 6 5 5 7 7 5 5 5 4 3 2 2 4 5 2 4 4
19 19 20 18 17 17 16 16 16 17 17 17 16 16 16 15 14 14 14 14 14 13 12 12 12 12 13 12 12 11 11 11 17 19 20 18 13 12 12 12 11 10 10 9 8 7 7 8 7 9 10 10 9 11 10 9 8 7 8 8 8 7 6 6 6 6 6 6 6 5 7 8 8 4 5 5 4 5 5 4 5 3 4 4 6
20 19 19 17 17 18 17 17 17 18 17 17 17 17 15 15 15 14 14 14 12 11 12 13 13 12 12 12 13 12 12 15 19 19 18 18 17 14 13 11 10 10 9 9 9 8 8 8 7 7 7 6 5 6 8 9 9 9 9 9 10 10 10 9 8 6 5 7 7 8 7 8 5 3 5 3 6 5 5 4 5 5 5 4 3
19 19 18 17 18 18 17 17 18 17 18 18 16 15 15 15 15 14 15 13 10 12 12 12 12 12 12 14 14 13 12 16 17 18 19 21 22 18 11 9 8 9 9 9 9 9 8 8 8 6 6 10 7 5 5 5 7 8 8 8 9 11 11 11 11 9 5 6 7 7 6 3 5 6 4 3 2 4 4 4 3 4 4 5 5
18 18 17 18 18 18 18 18 18 18 17 16 15 15 15 17 15 13 11 11 11 11 12 13 12 12 13 13 13 12 12 12 17 19 20 22 22 18 9 10 11 10 11 10 9 10 11 10 9 8 6 7 7 7 5 5 5 4 4 4 5 7 8 10 9 9 6 5 5 7 5 3 6 5 5 2 3 5 4 5 4 3 4 6 5
18 17 18 18 17 17 18 18 19 18 16 15 15 15 16 15 13 12 11 12 12 13 13 13 13 13 12 12 11 11 9 14 18 19 20 20 21 18 11 9 8 8 9 10 11 12 11 10 10 9 7 6 6 7 6 5 4 3 3 4 5 5 3 3 4 4 5 5 6 7 8 6 6 5 5 4 5 6 6 6 5 4 3 2 3
18 17 18 18 18 18 18 18 18 16 16 15 15 16 15 14 14 11 10 10 10 11 10 11 13 13 12 11 9 9 7 16 18 19 19 20 20 12 8 8 9 9 9 10 11 10 10 9 8 8 8 7 7 10 8 5 3 3 3 4 4 3 3 3 4 6 6 6 6 6 6 5 5 5 5 6 6 4 2 1 2 1 2 4 6
18 18 19 19 19 18 18 18 17 17 16 16 16 16 15 14 12 10 11 11 12 12 13 13 11 10 10 9 10 7 6 13 18 20 20 19 12 9 9 8 8 10 11 11 10 10 10 10 9 8 7 7 9 10 9 6 3 3 3 3 4 4 6 3 4 8 11 11 11 11 11 10 9 8 7 5 4 2 1 2 5 3 2 4 4
18 18 19 19 19 18 18 18 17 16 15 16 17 15 13 11 12 11 13 13 13 14 11 9 8 10 11 11 10 9 8 12 18 18 18 18 17 12 10 9 8 8 7 7 8 8 8 13 10 7 8 7 9 10 8 6 4 4 3 4 5 5 6 3 2 2 3 4 3 3 3 4 4 6 8 8 8 0 2 5 4 0 3 3 5
18 19 19 19 19 18 17 17 16 16 16 16 15 14 14 14 12 11 12 12 11 8 9 9 8 8 9 9 12 12 8 10 16 19 20 20 17 10 10 9 9 8 8 8 7 7 7 8 10 9 9 8 11 10 9 7 5 4 4 3 5 6 6 1 1 2 2 2 2 2 1 4 3 3 4 7 8 4 3 4 2 1 3 4 3
20 20 19 17 15 15 15 16 16 16 16 15 13 14 12 11 12 12 10 9 9 9 9 9 10 8 7 8 9 9 9 7 11 14 17 18 17 10 8 9 9 9 9 9 8 6 6 6 10 12 12 11 10 9 8 9 5 4 3 4 5 8 1 0 1 1 1 2 3 3 4 4 3 3 3 3 3 0 1 3 3 4 2 2 3
19 19 17 15 14 15 15 16 17 15 14 14 13 12 11 12 12 11 10 9 9 9 9 7 8 7 6 7 7 6 7 9 8 14 15 17 16 14 9 10 9 10 9 9 9 9 7 7 6 9 11 10 10 8 8 9 7 5 5 6 5 1 3 0 2 3 2 3 3 3 4 3 3 3 3 3 1 3 2 2 2 3 2 3 5
18 16 14 14 16 16 16 14 15 13 13 13 13 13 11 12 12 12 10 10 11 10 8 8 7 7 5 5 5 6 5 9 9 11 15 16 15 15 10 9 10 10 9 8 7 7 8 7 6 8 11 10 8 8 9 9 9 5 6 6 4 5 2 2 2 1 2 2 3 4 4 4 4 4 3 2 2 0 0 1 1 2 3 5 5
14 13 12 14 15 15 15 16 15 12 13 16 17 14 12 12 11 11 12 11 11 11 9 8 8 7 6 4 3 4 5 5 10 11 13 15 15 14 13 10 12 10 10 9 9 8 6 7 7 9 10 9 9 10 10 10 7 6 7 5 5 4 4 2 1 0 2 2 3 5 5 5 4 4 4 3 3 2 3 3 3 3 3 3 4
12 11 11 12 13 13 14 16 15 14 15 15 15 15 13 12 11 11 12 12 11 10 8 8 8 8 7 5 4 4 3 4 7 12 12 13 14 13 13 14 14 8 8 8 7 7 7 6 7 10 11 11 11 10 9 8 6 6 5 6 6 6 3 2 1 1 1 1 3 5 5 4 4 5 4 4 3 3 4 4 4 4 3 5 5
10 12 13 13 13 13 14 14 14 14 15 16 15 13 13 13 11 9 11 10 10 9 8 8 9 8 7 7 5 4 5 5 6 8 13 13 12 12 13 14 13 12 7 5 6 7 7 10 11 11 11 10 9 8 6 6 5 5 7 7 7 3 4 3 3 2 2 4 4 4 5 3 4 5 5 4 4 3 3 3 3 4 4 4 4
5 9 11 12 13 14 15 13 13 12 11 8 10 10 11 10 10 8 9 8 7 9 9 8 8 8 7 6 6 6 5 6 6 6 7 8 7 10 13 12 10 9 7 6 7 9 10 10 11 10 9 8 6 4 4 4 5 5 5 6 4 5 4 4 2 4 5 5 4 5 5 3 5 6 4 3 3 5 3 3 4 6 5 6 6
1 3 7 9 10 12 14 12 12 12 12 12 12 11 10 11 11 10 8 7 6 7 8 8 8 7 8 7 6 6 6 6 7 6 6 6 6 6 7 7 8 10 8 6 8 6 7 7 6 7 7 7 5 3 2 3 2 3 4 5 5 5 4 3 4 5 4 4 4 4 5 5 4 2 3 3 4 5 3 3 4 6 5 4 3
7 7 6 8 9 11 13 20 19 14 13 14 14 13 11 10 10 10 12 12 10 9 9 9 9 9 9 8 7 7 7 6 7 8 8 7 6 6 6 6 6 6 7 5 6 7 7 8 9 6 5 4 1 1 1 2 3 4 5 5 5 4 3 4 5 3 4 4 4 4 4 4 3 4 3 3 4 6 3 3 3 5 6 3 4
17 13 8 9 11 12 13 12 13 15 14 11 7 5 10 12 10 6 2 5 9 10 9 8 9 8 9 10 10 8 7 8 9 9 11 12 11 9 8 7 6 6 8 11 8 6 6 6 5 5 4 5 4 4 3 3 4 5 4 5 5 4 3 3 5 6 5 3 5 5 6 5 6 2 2 3 4 4 4 4 5 3 5 2 4
21 20 16 11 11 11 13 13 13 13 15 14 14 11 15 15 8 8 6 2 3 10 13 11 10 9 9 8 9 12 12 9 12 16 15 15 14 14 10 10 10 8 11 13 9 6 5 6 6 6 6 5 5 5 5 5 5 5 6 5 4 4 4 5 5 5 4 5 5 5 5 3 3 3 3 3 5 5 4 2 4 2 3 4 6
8 13 14 13 14 12 12 14 14 11 11 12 12 13 10 11 16 14 9 6 5 9 8 11 14 11 9 8 5 7 9 12 16 16 16 16 16 14 14 14 14 15 14 9 5 6 5 6 6 5 5 5 5 6 5 5 6 6 6 5 5 5 5 5 6 4 4 4 3 3 2 3 4 3 3 3 3 4 5 3 2 3 4 5 6
7 8 7 6 9 8 9 12 14 14 12 11 11 12 12 11 8 12 13 9 10 10 8 10 13 13 14 13 8 4 10 15 17 17 16 16 16 15 14 15 15 16 15 12 6 6 6 7 6 6 5 5 6 5 5 6 5 5 5 4 5 5 6 6 4 5 4 3 3 3 3 3 4 3 3 2 1 3 3 5 5 5 5 5 5
8 7 10 10 13 12 9 8 11 13 13 13 11 11 12 11 11 8 9 12 14 13 12 10 4 11 15 14 15 14 12 13 17 17 17 16 16 15 15 15 15 14 13 8 7 6 6 6 6 6 6 6 6 6 6 6 6 6 5 6 6 6 5 4 5 4 3 4 3 4 4 3 3 3 2 1 0 3 4 5 5 4 3 4 5
9 9 8 9 12 12 12 12 11 11 10 11 11 10 9 9 10 11 11 8 8 11 14 14 11 8 6 8 12 12 15 18 17 18 17 17 16 14 13 8 10 13 12 9 7 7 6 6 6 6 6 6 6 5 5 6 5 5 4 4 3 4 5 4 5 4 3 2 4 4 3 4 3 2 2 2 2 1 3 3 4 3 5 5 6
11 12 17 12 10 11 10 10 11 11 11 10 10 10 10 9 9 9 9 9 9 8 4 5 10 11 6 4 4 8 14 16 16 16 16 15 16 16 15 10 6 1 4 5 6 7 7 7 7 6 6 6 5 5 5 4 5 5 5 5 5 5 5 5 5 4 3 4 4 4 3 3 2 1 1 2 3 4 3 3 3 3 4 6 6
12 10 11 13 11 10 9 9 10 10 10 10 9 10 9 9 9 8 7 8 9 8 5 4 3 6 11 11 9 8 10 12 13 14 16 17 18 18 10 8 7 7 8 6 6 6 6 6 6 6 6 7 6 6 6 6 5 6 6 6 6 6 6 6 5 4 4 3 4 3 2 2 3 1 1 1 1 2 5 3 3 4 4 5 5
8 9 9 9 9 9 9 9 9 10 10 10 10 10 9 8 8 8 8 8 7 6 7 5 5 5 6 6 8 10 10 12 11 12 13 16 19 12 8 9 9 8 8 7 6 6 6 6 6 6 6 7 6 6 6 6 6 6 6 6 7 7 6 6 6 4 4 4 4 3 3 2 2 0 0 1 2 2 2 3 3 4 4 6 5
7 8 9 9 9 10 9 9 10 13 10 9 9 9 9 9 8 8 8 7 8 8 6 6 5 8 7 4 2 3 8 11 14 12 8 7 6 6 6 7 7 8 8 7 7 7 7 6 5 6 6 6 7 6 6 6 6 7 7 7 6 6 7 6 4 4 4 4 4 3 2 2 1 1 1 2 2 1 3 3 4 5 6 6 4
5 9 13 14 10 9 9 9 10 10 9 9 9 9 10 9 9 9 8 8 7 7 7 7 6 6 7 6 6 6 9 6 6 7 7 7 6 4 6 6 6 6 6 7 7 6 6 6 5 6 6 6 7 7 7 7 6 6 6 7 7 6 6 4 5 5 3 3 3 3 3 2 2 2 3 1 1 2 3 4 4 4 5 6 6
7 6 9 12 8 9 8 8 8 8 8 9 8 8 8 7 8 8 8 9 8 8 8 8 7 6 6 6 7 7 7 8 7 7 7 7 6 5 5 6 6 7 7 6 6 6 6 6 6 6 6 6 7 7 6 7 7 7 6 7 7 7 6 6 5 5 5 3 3 2 2 2 3 4 2 0 1 2 2 4 4 4 4 5 6
6 7 7 8 9 8 7 8 7 6 6 6 7 7 6 6 6 6 7 8 8 8 8 7 7 6 8 10 12 10 8 8 7 7 7 8 7 6 5 6 6 6 6 6 6 7 7 6 6 6 6 6 6 7 6 6 6 6 7 6 7 6 6 5 5 4 2 1 2 2 2 3 3 1 1 2 1 2 2 2 3 4 4 4 5
7 6 6 7 9 8 8 8 8 9 8 8 8 7 7 7 7 6 6 7 7 7 7 7 6 6 7 11 12 7 6 6 6 6 6 6 6 6 5 4 4 4 6 6 7 7 6 6 6 6 7 6 6 6 6 6 6 6 7 6 6 5 4 4 3 3 4 5 5 4 3 2 1 1 0 1 1 2 3 4 5 4 5 6 6
6 5 6 6 7 8 8 8 8 8 7 8 8 7 8 9 9 9 8 8 7 7 7 7 6 6 7 9 10 6 5 6 6 6 6 6 6 6 6 6 6 5 4 4 5 6 6 6 7 7 7 7 7 7 7 7 7 7 6 5 4 4 3 2 3 4 4 5 5 3 2 2 1 1 1 1 1 2 3 4 5 5 4 5 5
6 5 3 5 7 6 5 7 8 8 8 9 9 10 10 9 8 8 8 8 7 7 7 7 7 7 6 7 6 4 5 6 6 6 7 6 6 6 6 6 4 4 3 4 5 5 6 6 6 5 5 6 6 4 6 6 6 6 6 6 4 3 4 5 5 6 6 5 4 3 3 2 1 1 1 1 2 3 4 4 5 5 5 5 5
6 6 5 5 4 4 6 5 6 7 7 7 9 9 9 9 9 9 8 7 8 8 6 7 7 7 7 7 7 6 6 6 6 6 7 7 7 6 5 5 5 5 4 5 6 6 6 6 6 6 5 4 5 6 6 6 6 6 6 7 6 6 6 6 6 6 5 5 4 3 2 2 1 1 1 1 1 2 3 4 4 5 5 5 5
4 4 6 4 3 4 4 2 1 2 3 3 8 9 8 8 8 9 7 6 8 8 7 6 6 7 7 8 8 7 6 6 7 6 6 6 6 5 5 5 5 5 5 6 6 6 7 7 7 7 7 7 6 6 6 6 6 6 5 6 6 6 6 6 6 6 5 5 5 4 2 1 0 1 2 1 1 1 3 4 4 4 4 4 5
6 6 5 3 5 5 3 6 7 7 8 3 2 5 5 7 8 6 7 9 8 8 8 8 7 7 7 8 8 8 7 6 6 5 5 5 5 5 5 5 5 5 5 6 6 7 7 7 8 8 8 8 8 8 7 7 6 6 5 6 5 5 5 6 6 6 6 5 5 3 2 2 1 1 1 1 1 1 2 4 4 4 5 4 4
6 6 5 4 5 6 7 8 8 6 4 6 9 9 8 6 4 3 7 8 9 8 7 7 7 7 7 7 7 7 6 6 5 4 4 4 4 5 5 6 6 6 6 6 6 6 7 7 8 8 8 8 8 7 6 6 5 6 5 6 6 6 7 6 4 4 4 4 4 4 4 3 2 1 1 1 1 1 3 5 5 4 4 4 4
5 5 4 3 3 5 6 9 9 6 4 3 6 7 8 9 8 3 2 2 4 6 8 7 7 7 7 7 7 6 6 5 6 5 5 5 5 5 6 7 7 7 7 7 7 6 6 6 6 7 7 7 7 7 6 6 6 6 6 5 7 10 11 9 6 5 6 5 4 3 3 3 2 1 1 1 1 1 3 3 4 4 4 4 4
5 6 5 5 2 5 6 6 8 6 4 6 3 3 7 8 7 8 9 8 6 6 6 7 7 7 7 7 7 7 6 6 6 6 5 5 5 5 6 7 8 8 8 7 7 7 7 7 8 8 8 8 8 7 7 7 6 6 6 7 10 12 11 10 9 8 7 4 4 4 4 3 2 1 1 1 1 2 3 4 4 4 4 4 4
2 3 5 6 3 6 4 6 7 7 6 1 2 3 3 6 7 7 7 7 7 7 7 7 7 6 6 6 6 6 6 5 5 4 5 5 5 6 7 8 8 7 7 7 7 7 8 8 8 8 8 8 7 8 7 7 7 7 8 11 13 12 11 10 7 7 7 5 4 4 3 3 2 1 1 1 1 2 3 4 4 4 4 3 3
Wind_Direction
184 186 184 190 190 194 198 199 199 198 200 199 201 205 203 198 195 192 184 193 188 189 190 191 191 193 193 193 192 193 193 191 189 181 183 186 185 185 179 184 191 200 197 208 211 205 207 209 213 209 184 185 194 189 181 192 179 172 168 162 179 179 149 160 180 238 293 237 224 253 296 358 307 240 284 289 291 283 274 271 265 245 243 248 253
186 184 186 188 191 194 196 196 195 196 200 200 203 206 205 200 196 188 193 194 191 192 192 191 191 192 194 195 194 194 193 190 188 185 187 188 191 190 186 186 192 198 197 206 209 209 202 204 212 210 183 184 187 189 192 171 171 173 175 172 183 195 195 154 201 194 242 317 302 292 278 240 246 278 247 270 277 283 286 276 269 256 259 265 266
185 184 186 188 192 193 192 194 193 196 200 201 205 206 205 200 194 193 194 195 195 195 193 191 189 191 195 196 195 196 193 192 190 188 191 191 192 194 194 193 195 197 202 209 207 200 202 206 208 200 185 197 210 208 188 181 181 182 189 182 186 201 199 191 164 209 234 257 238 250 247 233 206 244 245 234 246 247 265 275 271 280 266 259 266
184 185 187 191 191 190 192 192 192 196 201 203 206 207 203 200 195 197 195 193 196 198 195 193 189 193 196 196 197 196 193 195 192 194 194 193 194 196 197 199 202 205 208 209 202 195 205 208 212 197 192 201 208 209 196 181 182 191 195 198 193 196 200 199 198 189 212 228 269 216 230 214 248 244 241 254 260 270 247 268 279 282 278 275 262
184 186 188 190 190 191 192 190 193 197 201 203 207 206 204 200 198 199 195 198 196 194 197 194 194 195 198 197 196 196 196 193 195 197 198 197 196 196 198 200 205 210 214 208 192 195 205 209 198 189 187 202 206 195 189 185 187 184 202 202 199 203 196 195 210 206 203 220 250 253 230 229 238 224 205 234 271 263 270 257 261 259 273 277 287
185 186 189 189 192 193 192 191 195 198 201 204 206 205 204 203 200 200 199 199 194 196 195 197 199 199 199 197 196 197 196 196 197 197 197 195 196 196 199 204 209 214 212 196 195 197 200 196 189 185 185 191 196 191 186 199 194 195 208 212 208 200 202 211 209 205 209 230 231 262 285 245 283 249 214 207 240 265 271 270 280 271 270 290 282
185 187 189 191 192 194 193 194 195 197 201 204 204 203 204 204 201 202 199 199 196 196 199 199 202 200 199 195 197 197 197 197 198 197 194 191 192 195 200 207 212 212 201 198 200 197 191 187 186 181 183 186 184 190 191 199 199 208 210 210 207 196 210 216 202 201 209 231 250 244 256 258 231 264 264 220 238 231 248 277 281 268 234 240 280
186 188 188 192 194 195 196 196 195 197 200 203 203 203 204 204 205 203 197 199 200 199 198 200 200 199 200 200 199 194 195 197 197 194 191 189 190 198 201 207 210 203 200 204 199 197 188 184 186 185 187 189 190 192 185 195 192 208 217 213 216 209 217 213 203 202 216 229 240 255 246 263 266 249 294 353 288 288 229 219 250 265 269 244 227
187 188 190 194 195 195 196 197 197 197 198 201 202 204 204 206 205 201 200 202 202 202 200 197 196 200 201 201 198 193 193 196 194 190 189 192 194 197 202 209 205 203 202 199 192 190 186 185 186 190 189 191 190 185 192 186 178 196 212 188 204 206 217 210 200 197 216 222 254 253 268 271 262 266 268 241 232 239 231 180 231 247 247 278 273
188 190 194 196 194 193 195 196 196 196 197 200 203 203 203 204 203 202 202 202 203 200 198 195 196 197 197 199 197 197 200 199 195 190 190 191 190 194 203 210 208 204 200 187 182 188 186 184 189 185 187 190 186 189 194 192 187 180 183 176 181 184 189 186 190 196 195 211 232 232 247 255 258 238 239 240 232 245 232 196 223 245 256 262 272
192 194 198 196 192 192 193 197 195 197 199 201 202 201 203 203 203 203 202 201 201 197 193 193 196 197 196 196 197 201 204 204 192 190 193 184 181 194 202 207 205 199 195 190 187 185 182 180 177 178 178 190 189 196 191 188 183 180 178 184 183 180 182 194 213 200 203 219 230 225 235 254 258 231 233 246 231 224 233 223 231 221 229 261 286
193 197 198 192 191 193 196 195 196 200 198 201 201 201 201 202 204 203 202 200 198 192 193 195 196 195 198 199 201 203 207 202 192 191 182 182 188 196 205 205 197 199 190 181 185 180 172 168 166 170 186 188 175 166 172 180 184 188 192 200 206 207 198 196 211 214 209 221 232 235 234 241 258 234 248 238 245 246 243 231 219 220 242 246 240
194 197 195 192 193 195 195 195 199 199 200 201 200 197 198 203 205 202 203 199 191 193 196 192 195 195 197 200 204 206 210 201 188 179 183 187 194 199 203 195 190 199 186 182 175 169 169 168 168 186 186 181 167 170 169 183 199 205 214 223 229 228 230 231 224 224 218 225 235 252 240 243 250 250 235 227 207 247 248 231 227 227 226 237 245
194 196 194 195 195 195 194 197 199 201 200 198 195 196 198 204 204 201 197 193 194 195 196 197 196 197 199 201 204 206 211 181 178 182 187 191 196 199 194 188 195 194 186 176 173 172 173 171 176 191 189 175 165 168 171 181 191 205 223 230 238 248 246 243 250 260 259 239 236 252 262 214 247 252 259 256 242 251 232 249 242 244 229 231 234
195 196 195 197 196 195 196 197 200 201 198 195 194 197 200 202 199 196 192 192 193 195 197 199 201 202 200 199 202 203 204 167 176 183 188 192 198 198 195 191 183 183 181 178 177 178 178 175 184 181 170 167 171 169 170 185 189 212 230 245 244 247 251 254 237 238 243 240 241 245 257 259 259 265 272 266 241 243 236 236 223 223 252 310 322
196 195 197 198 198 197 196 198 199 197 195 193 194 197 197 196 196 190 188 192 195 196 199 199 202 201 199 195 193 196 177 165 174 181 187 196 196 194 184 175 180 180 180 182 182 176 168 174 177 171 168 168 178 176 180 176 183 211 239 262 282 291 274 237 232 234 237 234 232 237 244 258 269 267 269 262 255 251 242 13 9 328 333 308 280
198 196 198 198 198 197 196 196 196 194 193 192 195 195 193 193 191 182 188 190 192 195 199 201 196 189 186 185 183 174 157 175 176 183 189 188 174 186 187 184 183 185 186 180 172 169 173 181 174 161 160 170 181 186 197 172 175 209 238 266 274 288 280 288 237 242 249 258 268 275 276 279 287 288 286 269 232 209 122 345 290 271 289 293 286
201 199 200 199 198 196 195 194 193 192 190 193 194 193 190 187 187 182 188 189 193 196 192 181 176 178 177 177 173 162 172 183 180 181 181 176 179 182 182 176 178 175 170 162 159 164 174 174 156 158 168 177 179 187 194 180 191 209 224 246 269 272 273 275 284 292 294 251 230 283 303 331 290 253 251 258 267 266 183 242 252 42 287 255 270
202 202 203 200 197 194 193 192 191 190 191 193 189 185 186 186 183 182 190 187 185 173 164 164 161 166 170 165 161 163 173 182 185 182 180 180 181 179 173 170 164 165 157 161 166 155 163 150 166 184 169 169 174 188 186 179 191 206 213 220 255 262 264 345 313 312 340 10 354 2 311 280 275 288 300 301 293 266 197 231 271 218 247 273 284
203 204 203 199 195 191 190 191 190 189 190 185 183 185 181 177 177 181 177 167 160 161 157 155 156 157 153 152 164 167 161 165 182 182 180 178 177 162 161 161 169 167 166 157 154 153 159 161 185 168 161 170 184 184 179 177 184 198 174 208 236 256 261 112 261 240 348 354 320 315 295 294 305 318 309 310 317 327 170 186 191 177 192 252 262
205 205 200 190 188 190 190 190 189 188 183 180 178 175 173 174 169 165 155 149 147 146 148 144 138 140 145 149 150 154 160 160 168 170 175 175 171 158 169 170 166 162 163 162 156 157 167 173 177 170 174 184 188 176 166 182 191 180 186 211 224 150 100 86 279 322 333 312 315 301 296 308 316 304 285 275 206 166 163 169 166 167 178 220 248
206 204 190 187 187 186 187 188 184 179 174 169 170 173 172 165 163 157 148 146 144 139 133 133 129 129 125 136 149 145 144 147 148 174 173 172 168 163 162 170 162 156 154 152 153 159 168 172 178 186 182 187 178 164 170 175 188 184 208 207 133 129 183 210 230 293 327 317 304 310 308 310 297 289 272 243 220 211 91 277 256 229 220 214 218
202 197 187 186 185 183 181 176 174 174 173 170 166 165 161 155 150 145 140 137 136 137 139 135 131 129 124 109 101 108 114 124 154 159 172 165 165 165 157 150 156 156 154 158 169 171 165 172 180 181 184 172 165 171 169 171 167 203 199 162 162 189 220 239 245 321 306 299 302 289 287 278 282 296 311 302 288 289 291 285 275 262 257 245 229
190 183 182 182 179 176 173 171 170 168 165 164 160 156 155 148 144 144 142 139 137 135 136 135 134 138 139 127 98 95 109 120 156 154 155 165 162 154 145 147 152 160 158 163 166 159 160 170 175 170 164 164 168 167 167 170 194 195 164 166 186 204 219 223 193 213 254 286 288 289 288 296 316 308 287 280 269 265 276 271 264 262 285 295 286
173 175 176 177 173 170 164 163 162 160 161 159 155 148 144 141 135 138 131 123 125 131 139 142 142 141 136 141 135 129 129 133 139 152 153 154 149 146 147 151 156 149 153 156 151 162 164 154 148 153 160 159 152 152 163 193 191 151 173 194 202 203 209 202 202 184 236 251 249 260 274 280 267 263 261 257 263 282 274 288 300 310 293 275 274
185 179 176 169 165 157 155 149 146 143 134 128 126 126 129 125 111 95 91 102 129 140 139 136 136 139 143 144 151 149 142 136 139 142 154 139 135 144 148 150 151 151 127 119 132 134 138 137 139 136 128 130 133 160 185 192 190 198 198 207 218 216 207 191 194 195 223 235 242 251 254 270 281 270 273 265 278 288 308 302 317 312 315 314 330
92 158 157 154 146 143 134 127 105 89 86 88 88 88 81 87 102 114 125 137 153 150 139 136 137 143 152 160 149 145 146 143 142 145 149 150 148 136 125 124 114 106 99 110 106 106 119 127 124 118 109 132 119 119 142 156 152 200 212 211 220 219 210 198 199 209 233 245 255 258 254 256 276 296 264 273 299 298 284 285 301 284 297 310 317
46 12 38 77 89 97 101 105 108 109 105 111 116 118 124 142 151 153 158 160 161 156 150 148 156 163 164 158 149 146 152 150 157 161 165 168 166 153 153 145 143 137 118 122 118 124 120 104 101 99 108 115 93 83 184 199 191 192 210 211 221 220 213 214 228 219 234 227 250 261 276 269 265 245 269 300 283 283 307 325 294 298 299 323 331
105 98 82 92 98 107 110 112 115 114 116 105 81 89 146 148 130 114 126 170 157 149 154 159 167 170 162 158 156 158 157 176 184 173 175 177 168 165 170 167 155 147 144 132 112 100 100 102 99 112 136 156 175 203 217 221 224 210 209 205 213 210 203 198 217 230 229 231 247 250 259 257 249 269 287 293 289 298 316 318 291 267 299 292 283
138 138 140 135 127 125 124 123 116 118 120 118 115 86 49 51 68 128 151 28 126 162 159 168 168 161 160 167 170 168 177 178 155 165 172 173 175 172 165 151 153 141 147 142 126 122 130 138 158 158 163 169 184 206 220 220 227 224 225 218 209 212 209 208 219 234 233 231 244 239 240 224 249 258 271 285 299 297 289 272 285 313 301 307 312
109 126 133 140 142 150 135 127 127 124 120 125 120 117 106 57 51 46 46 49 104 130 132 134 150 159 149 152 125 91 117 133 153 166 166 172 170 167 160 156 147 142 145 128 113 136 146 155 168 176 174 172 193 213 222 219 227 227 233 214 216 217 216 211 218 213 228 231 218 211 214 204 234 247 251 256 261 278 304 304 297 307 307 306 308
91 97 88 93 114 120 131 127 127 124 126 123 124 125 116 112 75 38 41 55 64 73 95 135 148 142 147 142 132 104 145 156 158 162 168 167 168 167 161 154 152 151 164 143 137 157 165 167 171 185 179 185 216 223 218 221 227 226 233 221 224 211 202 219 203 186 184 182 202 236 240 238 240 244 237 244 252 282 298 313 320 319 314 310 291
108 98 120 135 126 112 111 122 126 123 128 126 126 121 128 133 124 109 51 58 66 63 55 48 84 164 150 151 153 156 161 165 162 161 165 168 165 168 159 155 154 156 144 151 163 168 176 175 180 185 183 206 216 219 223 222 229 230 218 217 228 211 199 186 151 152 160 186 198 226 232 230 232 240 245 238 265 313 320 313 304 303 292 306 312
119 130 136 136 127 130 139 143 133 124 123 124 126 127 128 125 131 130 127 120 77 59 48 40 36 61 98 145 159 152 153 160 164 165 164 165 161 144 129 129 139 161 165 172 170 178 174 180 188 192 196 210 220 214 228 230 221 217 209 204 183 139 145 135 125 139 160 190 213 227 212 221 220 229 295 320 322 309 309 293 291 311 322 310 303
121 126 134 134 127 127 134 131 124 123 124 127 127 124 121 125 131 134 137 134 132 121 122 56 34 35 60 65 67 148 158 160 161 162 155 144 133 130 114 114 124 199 243 210 181 170 175 181 189 194 199 203 194 177 183 174 155 141 135 124 125 126 121 123 134 145 168 194 203 208 220 237 251 226 214 316 329 328 300 293 303 309 303 307 309
122 134 137 128 123 125 124 125 126 130 131 127 125 123 126 130 130 126 115 116 119 124 108 68 61 59 60 53 65 102 133 146 149 145 142 139 142 135 141 158 160 184 191 194 186 178 171 178 179 185 172 165 167 176 164 143 142 141 140 133 134 134 131 139 158 180 203 193 210 221 226 243 236 241 29 355 270 247 255 275 302 307 303 299 301
116 122 116 113 120 122 122 123 123 123 121 123 125 126 131 128 124 121 123 125 123 119 115 128 120 80 60 61 67 73 86 105 113 122 138 149 156 157 162 167 176 169 181 186 181 177 180 186 168 160 164 160 163 155 142 136 134 130 137 137 141 146 161 168 179 186 188 211 225 221 219 243 277 86 296 282 276 264 288 316 320 313 309 304 309
145 139 135 133 126 122 123 124 125 123 122 125 128 132 133 135 132 131 129 129 131 126 128 147 142 139 137 124 104 111 105 99 94 84 90 122 160 178 165 173 165 171 176 178 178 176 186 178 165 158 167 154 151 153 143 148 145 141 144 151 155 162 171 176 185 185 195 209 221 219 223 251 248 256 163 188 231 300 317 317 316 312 312 309 308
123 113 119 124 127 129 128 128 130 130 130 131 137 139 141 143 145 143 140 140 139 138 145 147 149 153 148 144 131 140 120 118 143 156 161 172 173 168 162 165 166 172 168 170 173 174 182 177 183 171 159 156 154 156 154 157 153 151 154 151 157 157 164 182 192 205 204 228 247 234 233 245 254 218 194 190 339 325 319 312 307 301 298 299 295
109 114 120 118 114 119 126 128 129 130 136 138 141 143 143 149 150 146 141 137 147 158 158 155 163 161 153 153 148 156 153 157 163 161 164 168 180 184 170 165 170 170 171 171 177 183 184 188 173 171 162 163 158 164 161 156 161 161 155 154 157 169 186 184 190 186 208 216 233 256 216 209 217 206 207 148 325 322 319 305 297 294 286 282 292
117 124 126 120 116 113 111 117 121 126 128 129 136 141 142 139 137 147 148 151 158 165 167 164 161 161 173 176 172 172 157 162 160 162 170 171 178 181 183 174 164 169 173 177 183 187 187 174 172 166 162 163 165 157 158 157 157 154 160 162 160 172 185 195 190 196 175 160 206 173 170 192 199 109 37 313 303 328 307 294 295 297 298 306 304
108 108 104 114 122 122 129 136 140 140 141 144 145 149 150 153 147 149 158 167 166 168 163 160 156 157 167 163 172 170 126 137 140 148 157 172 178 189 185 181 184 174 167 177 180 178 174 167 165 162 160 159 154 154 149 152 156 160 161 162 167 172 180 205 202 176 148 141 137 155 177 176 147 149 157 243 347 333 324 318 306 305 313 312 310
73 97 112 118 118 135 139 144 142 142 144 143 152 149 149 152 164 168 174 171 167 166 161 152 140 137 151 161 170 163 125 142 151 160 166 175 184 186 188 194 193 196 186 181 179 169 161 159 159 163 160 161 160 159 160 167 164 158 156 146 144 152 183 160 144 144 135 138 143 144 142 134 111 73 31 22 356 343 325 314 313 315 310 311 308
65 60 82 121 133 133 135 143 146 159 160 153 154 159 165 165 160 167 171 166 164 161 158 150 143 141 139 152 162 152 150 155 158 166 172 178 183 189 195 194 184 192 178 152 159 151 145 139 141 146 147 151 152 148 144 145 143 139 135 130 138 146 148 148 157 165 158 143 142 133 129 121 115 92 47 356 16 350 326 323 315 313 311 307 308
61 65 65 61 68 113 143 148 153 160 147 145 153 164 168 162 161 167 167 167 159 152 147 144 145 140 143 155 167 175 176 171 167 169 179 180 183 191 185 173 174 180 164 157 159 150 140 134 133 131 126 126 131 133 135 140 137 137 145 145 145 146 157 161 170 166 146 133 137 140 133 126 95 83 357 299 318 327 320 307 305 307 311 307 312
49 57 76 46 39 35 14 328 149 91 75 111 151 164 167 160 157 156 158 156 149 143 138 140 144 148 154 160 172 178 178 175 176 173 174 176 180 182 174 168 166 173 168 164 157 150 145 141 140 139 140 144 142 140 138 138 137 142 145 142 149 159 161 155 147 139 145 142 145 146 152 142 159 200 256 270 300 304 294 299 302 295 281 286 292
70 56 34 67 93 87 72 8 10 56 82 24 13 105 126 140 144 146 147 146 141 137 139 147 149 158 162 165 173 181 179 175 175 166 166 175 182 180 173 165 158 170 172 171 160 152 147 147 148 148 151 155 151 146 145 144 140 138 134 135 132 140 155 163 161 149 150 159 150 149 159 169 192 207 282 313 302 302 310 304 295 292 290 287 294
35 65 105 137 130 135 134 118 103 91 140 156 135 115 99 66 28 120 150 152 144 145 148 153 156 161 164 173 177 172 175 178 179 173 166 174 188 179 168 168 167 171 171 174 165 157 158 158 159 157 153 148 140 139 141 142 138 141 145 155 160 166 167 159 148 154 158 159 165 159 162 167 183 200 234 237 257 288 311 305 304 298 286 299 311
73 70 58 53 75 87 105 113 120 142 207 109 73 96 111 122 137 158 120 156 155 152 150 157 161 166 171 170 168 168 173 173 180 184 191 197 187 181 175 174 171 168 171 177 172 158 143 134 131 128 136 144 142 141 145 148 152 157 163 169 176 166 160 157 154 168 172 159 146 138 139 149 167 195 202 209 263 275 277 279 283 281 295 311 314
88 80 42 10 17 85 89 90 108 114 79 98 152 205 147 155 157 172 171 175 162 157 156 157 160 168 164 161 165 169 169 178 182 185 191 191 187 175 170 171 169 171 172 166 159 153 151 151 150 151 151 149 148 150 155 159 166 168 168 174 172 165 166 166 165 170 165 159 154 158 152 155 162 175 182 231 261 289 295 290 290 294 305 308 307
125 108 95 91 23 351 45 89 84 85 55 65 237 267 161 157 161 160 156 152 151 156 160 162 163 158 159 157 160 160 174 183 178 167 173 178 181 174 168 169 172 170 169 164 160 158 157 155 155 156 155 155 156 162 165 168 168 171 175 175 171 169 165 160 163 173 163 151 148 148 156 160 157 165 220 240 266 268 281 297 299 300 301 296 297